When you browse on this site, cookies collect data to enhance your experience and personalize the content and advertising you see.
Visit our Privacy Policy to learn more. By continuing to use the site, you agree to this use of cookies and data.
  • In Sweden
  • List of Countries
  • For 7 days
  • Water Temperature
  • Weather Map
  • Weather Widgets
  • user-avatar
    Login

    Hourly Weather Nagpur

    Today, 24 February, Monday

    Time Temperature Precipitation Wind Pressure Humidity
    00:00 +27°C° 0 mm 2 mps 733 mmHg 45%
    01:00 +26°C° 0 mm 1 mps 732 mmHg 48%
    02:00 +25°C° 0 mm 1 mps 732 mmHg 51%
    03:00 +24°C° 0 mm 1 mps 732 mmHg 52%
    04:00 +24°C° 0 mm 1 mps 732 mmHg 54%
    05:00 +23°C° 0 mm 2 mps 732 mmHg 57%
    06:00 +24°C° 0 mm 2 mps 733 mmHg 55%
    07:00 +25°C° 0 mm 2 mps 733 mmHg 53%
    08:00 +25°C° 0 mm 2 mps 734 mmHg 51%
    09:00 +28°C° 0 mm 2 mps 734 mmHg 45%
    10:00 +30°C° 0 mm 3 mps 734 mmHg 38%
    11:00 +32°C° 0 mm 1 mps 734 mmHg 34%
    12:00 +34°C° 0 mm 2 mps 733 mmHg 29%
    13:00 +35°C° 0 mm 3 mps 732 mmHg 25%
    14:00 +37°C° 0 mm 4 mps 731 mmHg 20%
    15:00 +36°C° 0 mm 4 mps 730 mmHg 20%
    16:00 +36°C° 0 mm 4 mps 730 mmHg 19%
    17:00 +35°C° 0 mm 4 mps 730 mmHg 19%
    18:00 +33°C° 0 mm 4 mps 730 mmHg 21%
    19:00 +31°C° 0 mm 3 mps 730 mmHg 23%
    20:00 +29°C° 0 mm 3 mps 731 mmHg 25%
    21:00 +28°C° 0 mm 3 mps 731 mmHg 26%
    22:00 +27°C° 0 mm 3 mps 731 mmHg 27%
    23:00 +26°C° 0 mm 3 mps 731 mmHg 28%

    Tomorrow, 25 February, Tuesday

    Time Temperature Precipitation Wind Pressure Humidity
    00:00 +25°C° 0 mm 3 mps 731 mmHg 27%
    01:00 +25°C° 0 mm 3 mps 731 mmHg 27%
    02:00 +25°C° 0 mm 2 mps 730 mmHg 26%
    03:00 +24°C° 0 mm 2 mps 730 mmHg 28%
    04:00 +23°C° 0 mm 2 mps 731 mmHg 30%
    05:00 +21°C° 0 mm 2 mps 731 mmHg 32%
    06:00 +22°C° 0 mm 3 mps 731 mmHg 32%
    07:00 +24°C° 0 mm 3 mps 732 mmHg 31%
    08:00 +25°C° 0 mm 3 mps 733 mmHg 31%
    09:00 +27°C° 0 mm 3 mps 733 mmHg 29%
    10:00 +29°C° 0 mm 3 mps 733 mmHg 27%
    11:00 +32°C° 0 mm 2 mps 733 mmHg 25%
    12:00 +32°C° 0 mm 2 mps 732 mmHg 21%
    13:00 +34°C° 0 mm 2 mps 731 mmHg 18%
    14:00 +35°C° 0 mm 2 mps 730 mmHg 15%
    15:00 +35°C° 0 mm 2 mps 730 mmHg 14%
    16:00 +34°C° 0 mm 2 mps 730 mmHg 14%
    17:00 +34°C° 0 mm 2 mps 730 mmHg 14%
    18:00 +31°C° 0 mm 2 mps 730 mmHg 16%
    19:00 +29°C° 0 mm 2 mps 731 mmHg 18%
    20:00 +26°C° 0 mm 2 mps 731 mmHg 20%
    21:00 +26°C° 0 mm 3 mps 732 mmHg 23%
    22:00 +25°C° 0 mm 3 mps 732 mmHg 26%
    23:00 +24°C° 0 mm 3 mps 732 mmHg 30%

    Day after tomorrow, 26 February, Wednesday

    Time Temperature Precipitation Wind Pressure Humidity
    00:00 +22°C° 0 mm 3 mps 732 mmHg 33%
    01:00 +21°C° 0 mm 3 mps 732 mmHg 36%
    02:00 +20°C° 0 mm 3 mps 732 mmHg 39%
    03:00 +20°C° 0 mm 2 mps 732 mmHg 40%
    04:00 +19°C° 0 mm 2 mps 732 mmHg 42%
    05:00 +19°C° 0 mm 2 mps 732 mmHg 43%
    06:00 +20°C° 0 mm 2 mps 733 mmHg 40%
    07:00 +22°C° 0 mm 3 mps 734 mmHg 37%
    08:00 +25°C° 0 mm 3 mps 734 mmHg 33%
    09:00 +27°C° 0 mm 3 mps 734 mmHg 28%
    10:00 +29°C° 0 mm 3 mps 734 mmHg 23%
    11:00 +31°C° 0 mm 3 mps 734 mmHg 19%
    12:00 +33°C° 0 mm 3 mps 733 mmHg 17%
    13:00 +34°C° 0 mm 2 mps 732 mmHg 15%
    14:00 +35°C° 0 mm 2 mps 731 mmHg 14%
    15:00 +34°C° 0 mm 2 mps 731 mmHg 14%
    16:00 +33°C° 0 mm 1 mps 731 mmHg 15%
    17:00 +32°C° 0 mm 1 mps 731 mmHg 15%
    18:00 +31°C° 0 mm 1 mps 732 mmHg 17%
    19:00 +29°C° 0 mm 1 mps 732 mmHg 18%
    20:00 +27°C° 0 mm 1 mps 733 mmHg 20%
    21:00 +26°C° 0 mm 1 mps 733 mmHg 21%
    22:00 +25°C° 0 mm 2 mps 733 mmHg 22%
    23:00 +25°C° 0 mm 2 mps 733 mmHg 23%

    27 February, Thursday

    Time Temperature Precipitation Wind Pressure Humidity
    00:00 +24°C° 0 mm 2 mps 733 mmHg 24%
    01:00 +23°C° 0 mm 2 mps 732 mmHg 25%
    02:00 +21°C° 0 mm 2 mps 732 mmHg 26%
    03:00 +21°C° 0 mm 2 mps 732 mmHg 28%
    04:00 +20°C° 0 mm 2 mps 732 mmHg 29%
    05:00 +20°C° 0 mm 2 mps 732 mmHg 31%
    06:00 +21°C° 0 mm 2 mps 733 mmHg 29%
    07:00 +24°C° 0 mm 3 mps 734 mmHg 27%
    08:00 +25°C° 0 mm 3 mps 735 mmHg 25%
    09:00 +28°C° 0 mm 3 mps 735 mmHg 22%
    10:00 +30°C° 0 mm 3 mps 735 mmHg 19%
    11:00 +34°C° 0 mm 3 mps 735 mmHg 16%
    12:00 +35°C° 0 mm 2 mps 734 mmHg 15%
    13:00 +35°C° 0 mm 1 mps 733 mmHg 13%
    14:00 +36°C° 0 mm 1 mps 732 mmHg 12%
    15:00 +35°C° 0 mm 1 mps 731 mmHg 13%
    16:00 +35°C° 0 mm 1 mps 731 mmHg 13%
    17:00 +35°C° 0 mm 2 mps 731 mmHg 14%
    18:00 +32°C° 0 mm 1 mps 731 mmHg 15%
    19:00 +30°C° 0 mm 1 mps 732 mmHg 17%
    20:00 +29°C° 0 mm 1 mps 732 mmHg 18%
    21:00 +28°C° 0 mm 1 mps 732 mmHg 19%
    22:00 +27°C° 0 mm 1 mps 732 mmHg 20%
    23:00 +27°C° 0 mm 1 mps 732 mmHg 21%

    28 February, Friday

    Time Temperature Precipitation Wind Pressure Humidity
    00:00 +26°C° 0 mm 1 mps 731 mmHg 22%
    01:00 +25°C° 0 mm 1 mps 731 mmHg 24%
    02:00 +24°C° 0 mm 1 mps 730 mmHg 25%
    03:00 +23°C° 0 mm 1 mps 730 mmHg 26%
    04:00 +23°C° 0 mm 1 mps 730 mmHg 27%
    05:00 +21°C° 0 mm 2 mps 730 mmHg 29%
    06:00 +24°C° 0 mm 2 mps 731 mmHg 27%
    07:00 +25°C° 0 mm 2 mps 732 mmHg 26%
    08:00 +26°C° 0 mm 2 mps 733 mmHg 24%
    09:00 +29°C° 0 mm 2 mps 733 mmHg 22%
    10:00 +31°C° 0 mm 3 mps 732 mmHg 20%
    11:00 +35°C° 0 mm 3 mps 732 mmHg 18%
    12:00 +36°C° 0 mm 2 mps 732 mmHg 16%
    13:00 +37°C° 0 mm 2 mps 731 mmHg 14%
    14:00 +37°C° 0 mm 1 mps 730 mmHg 12%
    15:00 +37°C° 0 mm 1 mps 730 mmHg 13%
    16:00 +36°C° 0 mm 1 mps 729 mmHg 13%
    17:00 +36°C° 0 mm 1 mps 729 mmHg 14%
    18:00 +34°C° 0 mm 1 mps 730 mmHg 15%
    19:00 +32°C° 0 mm 1 mps 730 mmHg 16%
    20:00 +30°C° 0 mm 1 mps 730 mmHg 18%
    21:00 +29°C° 0 mm 1 mps 730 mmHg 18%
    22:00 +29°C° 0 mm 1 mps 730 mmHg 19%
    23:00 +28°C° 0 mm 2 mps 730 mmHg 19%

    29 February, Saturday

    Time Temperature Precipitation Wind Pressure Humidity
    00:00 +27°C° 0 mm 2 mps 730 mmHg 22%
    01:00 +26°C° 0 mm 2 mps 729 mmHg 25%
    02:00 +24°C° 0 mm 2 mps 729 mmHg 27%
    03:00 +24°C° 0 mm 1 mps 729 mmHg 29%
    04:00 +23°C° 0 mm 1 mps 729 mmHg 31%
    05:00 +23°C° 0 mm 1 mps 729 mmHg 33%
    06:00 +24°C° 0 mm 2 mps 730 mmHg 35%
    07:00 +26°C° 0 mm 3 mps 731 mmHg 37%
    08:00 +27°C° 0 mm 4 mps 732 mmHg 39%
    09:00 +30°C° 0 mm 4 mps 732 mmHg 36%
    10:00 +33°C° 0 mm 4 mps 732 mmHg 33%
    11:00 +36°C° 0 mm 5 mps 732 mmHg 30%
    12:00 +37°C° 0 mm 5 mps 731 mmHg 26%
    13:00 +38°C° 0 mm 4 mps 730 mmHg 23%
    14:00 +40°C° 0 mm 4 mps 729 mmHg 20%
    15:00 +35°C° 0.5 mm 4 mps 729 mmHg 31%
    16:00 +32°C° 0.5 mm 4 mps 729 mmHg 43%
    17:00 +27°C° 0.5 mm 4 mps 728 mmHg 54%
    18:00 +27°C° 0.3 mm 4 mps 729 mmHg 55%
    19:00 +26°C° 0.3 mm 3 mps 730 mmHg 56%
    20:00 +26°C° 0.3 mm 2 mps 730 mmHg 57%
    21:00 +25°C° 0.2 mm 2 mps 730 mmHg 59%
    22:00 +25°C° 0.2 mm 3 mps 731 mmHg 62%
    23:00 +24°C° 0.2 mm 3 mps 731 mmHg 64%
    Show more